Simultaneous Nadir Overpasses (SNOs) Predictions

Prediction of SNOs between AQUA and GOES-15 Satellite Orbit:

Table of predicted SNOs for the next 14.0 days since TLE Epoch: 10/17/2014
Index Date Time (AQUA) AQUA Lat,Lon GOES-15 Lat,Lon Distance(km) Time Diff (sec)
1 10/18/2014 22:23:01 0.56,-131.94 -0.18,-135.32 385.04 80
2 10/19/2014 10:44:17 0.51,-137.10 0.15,-135.31 202.37 80
3 10/21/2014 10:32:05 -0.08,-134.13 0.15,-135.29 131.43 80
4 10/21/2014 22:53:29 -0.98,-139.33 -0.13,-135.28 460.86 80
5 10/23/2014 10:19:54 -0.74,-131.18 0.16,-135.26 464.70 80
6 10/23/2014 22:41:17 -0.38,-136.37 -0.14,-135.25 127.63 80
7 10/25/2014 22:29:06 0.23,-133.41 -0.14,-135.21 204.73 80
8 10/26/2014 10:50:21 0.83,-138.57 0.11,-135.21 382.26 80
9 10/28/2014 10:38:09 0.21,-135.61 0.12,-135.16 51.03 80
10 10/30/2014 10:25:57 -0.42,-132.65 0.12,-135.10 279.47 80
11 10/30/2014 22:47:21 -0.68,-137.84 -0.09,-135.08 314.52 80




NCC Satellite Simultaneous Nadir Overpasses (SNOs) Prediction Service
